Location: Newark
(13.8117°N, 3.6025°W)
Time: 14:41:52
(UTC+00:00)

Vanguard 2 - Pass Details

Date: 31 August 2019
Orbit: 554 x 2937 km, 32.9° (Epoch: 17 September)

Event Time Altitude Azimuth Distance (km) Brightness Sun altitude
Rises 14:09:19 0° 316° (NW) 3,400 11.1 61.5°
Reaches altitude 10° 14:11:48 10° 329° (NNW) 2,704 10.6 60.9°
Maximum altitude 14:17:32 29° 28° (NNE) 2,170 10.0 59.5°
Drops below altitude 10° 14:26:12 10° 84° (E) 4,174 11.1 57.4°
Sets 14:31:06 0° 94° (E) 5,615 11.6 56.2°
